Shenandoah, IA

6:19 AM CDT on May 26, 2017 (GMT -0500)
Shenandoah Municipal

Weather History for KSDA - May, 2013

Change the Weather History Date:

Saturday, May 4, 2013

  Actual Average Record
Temperature  
Mean Temperature 40 °F -  
Max Temperature 46 °F 71 °F 92 °F (1950)
Min Temperature 33 °F 47 °F 30 °F (1954)
Degree Days  
Heating Degree Days 26    
Moisture  
Dew Point 35 °F    
Average Humidity 81    
Maximum Humidity 87    
Minimum Humidity 76    
Precipitation  
Precipitation 0.00 in - - ()
Sea Level Pressure  
Sea Level Pressure 30.02 in    
Wind  
Wind Speed 16 mph (North)    
Max Wind Speed 24 mph    
Max Gust Speed 31 mph    
Visibility 8 miles    
Events Rain    
Averages and records for this station are not official NWS values.
T = Trace of Precipitation, MM = Missing Value Source: NWS Daily Summary

Daily Weather History Graph

Daily Weather History Graph

Search for Another Location

Airport or City:

Trip Planner

Search our weather history database for the weather conditions in past years. The results will help you decide how hot, cold, wet, or windy it might be!

Date:

Astronomy

May. 04, 2013 Rise Set
Actual Time 6:16 AM CDT 8:21 PM CDT
Civil Twilight 5:46 AM CDT 8:51 PM CDT
Nautical Twilight 5:09 AM CDT 9:28 PM CDT
Astronomical Twilight 4:29 AM CDT 10:08 PM CDT
Moon 3:16 AM CDT (5/4) 3:18 PM CDT (5/4)
Length of Visible Light 15h 05m
Length of Day
14h 05m
Waning Crescent, 27% of the Moon is Illuminated
May 4
Waning Crescent
May 9
New
May 17
First Quarter
May 24
Full
May 31
Last Quarter

Hourly Weather History & Observations

Time (CDT) Temp. Windchill Dew Point Humidity Pressure Visibility Wind Dir Wind Speed Gust Speed Precip Events Conditions
12:15 AM 35.6 °F 23.7 °F 30.2 °F 81% 29.97 in 10.0 mi North 24.2 mph 29.9 mph N/A   Overcast
12:35 AM 35.6 °F 25.5 °F 30.2 °F 81% 29.98 in 10.0 mi NNE 17.3 mph 27.6 mph N/A   Overcast
12:55 AM 35.6 °F 25.9 °F 30.2 °F 81% 29.97 in 10.0 mi North 16.1 mph 21.9 mph N/A   Overcast
1:15 AM 35.6 °F 25.2 °F 30.2 °F 81% 29.98 in 10.0 mi North 18.4 mph 26.5 mph N/A   Overcast
1:35 AM 35.6 °F 25.9 °F 30.2 °F 81% 29.98 in 10.0 mi North 16.1 mph 21.9 mph N/A   Overcast
1:55 AM 35.6 °F 26.6 °F 30.2 °F 81% 29.97 in 10.0 mi North 13.8 mph 24.2 mph N/A   Overcast
2:15 AM 35.6 °F 25.5 °F 30.2 °F 81% 29.96 in 10.0 mi North 17.3 mph 23.0 mph N/A   Overcast
2:35 AM 35.6 °F 27.5 °F 30.2 °F 81% 29.96 in 10.0 mi North 11.5 mph 23.0 mph N/A   Overcast
2:55 AM 35.6 °F 25.5 °F 30.2 °F 81% 29.95 in 10.0 mi North 17.3 mph 24.2 mph N/A   Overcast
3:15 AM 35.6 °F 27.1 °F 30.2 °F 81% 29.96 in 10.0 mi North 12.7 mph 25.3 mph N/A   Overcast
3:35 AM 35.6 °F 27.5 °F 30.2 °F 81% 29.95 in 10.0 mi North 11.5 mph 26.5 mph N/A   Overcast
3:55 AM 35.6 °F 24.2 °F 30.2 °F 81% 29.95 in 3.0 mi North 21.9 mph 31.1 mph N/A Rain Rain
4:15 AM 35.6 °F 26.2 °F 30.2 °F 81% 29.96 in 2.5 mi North 15.0 mph 24.2 mph N/A Rain Light Rain
4:35 AM 33.8 °F 23.9 °F 30.2 °F 87% 29.95 in 2.5 mi North 15.0 mph 23.0 mph N/A Rain Light Rain
4:55 AM 35.6 °F 25.9 °F 30.2 °F 81% 29.95 in 2.5 mi North 16.1 mph 23.0 mph N/A Rain Rain
5:15 AM 35.6 °F 25.2 °F 30.2 °F 81% 29.94 in 2.5 mi North 18.4 mph 25.3 mph N/A Rain Rain
5:35 AM 35.6 °F 25.2 °F 30.2 °F 81% 29.94 in 2.5 mi North 18.4 mph 25.3 mph N/A Rain Light Rain
5:55 AM 35.6 °F 25.9 °F 30.2 °F 81% 29.94 in 7.0 mi North 16.1 mph 23.0 mph N/A   Light Drizzle
6:15 AM 35.6 °F 25.9 °F 30.2 °F 81% 29.94 in 10.0 mi North 16.1 mph 25.3 mph N/A   Overcast
6:35 AM 35.6 °F 26.2 °F 30.2 °F 81% 29.95 in 5.0 mi North 15.0 mph 26.5 mph N/A   Drizzle
6:55 AM 35.6 °F 25.9 °F 30.2 °F 81% 29.95 in 4.0 mi North 16.1 mph 20.7 mph N/A Rain Light Rain
7:15 AM 35.6 °F 25.5 °F 30.2 °F 81% 29.94 in 5.0 mi North 17.3 mph 25.3 mph N/A   Overcast
7:35 AM 35.6 °F 25.5 °F 30.2 °F 81% 29.95 in 7.0 mi North 17.3 mph 24.2 mph N/A   Overcast
7:55 AM 35.6 °F 25.9 °F 30.2 °F 81% 29.96 in 7.0 mi North 16.1 mph 21.9 mph N/A   Overcast
8:15 AM 35.6 °F 26.2 °F 32.0 °F 87% 29.97 in 5.0 mi NNE 15.0 mph 23.0 mph N/A   Overcast
8:35 AM 35.6 °F 25.5 °F 32.0 °F 87% 29.97 in 2.0 mi North 17.3 mph 25.3 mph N/A   Overcast
8:55 AM 35.6 °F 25.2 °F 32.0 °F 87% 29.98 in 3.0 mi North 18.4 mph 25.3 mph N/A   Overcast
9:15 AM 37.4 °F 27.8 °F 33.8 °F 87% 29.98 in 4.0 mi North 17.3 mph 25.3 mph N/A   Overcast
9:35 AM 37.4 °F 27.8 °F 33.8 °F 87% 29.98 in 3.0 mi North 17.3 mph 23.0 mph N/A   Overcast
9:55 AM 37.4 °F 27.2 °F 33.8 °F 87% 29.99 in 2.5 mi North 19.6 mph - N/A   Overcast
10:15 AM 37.4 °F 27.5 °F 33.8 °F 87% 30.00 in 5.0 mi NNE 18.4 mph 24.2 mph N/A   Haze
10:35 AM 37.4 °F 28.2 °F 33.8 °F 87% 30.01 in 7.0 mi NNE 16.1 mph - N/A   Overcast
10:55 AM 39.2 °F 29.6 °F 33.8 °F 81% 30.01 in 10.0 mi NNE 19.6 mph 25.3 mph N/A   Overcast
11:15 AM 39.2 °F 31.2 °F 33.8 °F 81% 30.02 in 10.0 mi North 13.8 mph - N/A   Overcast
11:35 AM 39.2 °F 31.2 °F 35.6 °F 87% 30.02 in 7.0 mi North 13.8 mph 21.9 mph N/A   Overcast
11:55 AM 39.2 °F 29.8 °F 35.6 °F 87% 30.02 in 10.0 mi NNE 18.4 mph 21.9 mph N/A   Overcast
12:15 PM 39.2 °F 30.5 °F 35.6 °F 87% 30.02 in 10.0 mi NNE 16.1 mph 26.5 mph N/A   Overcast
12:35 PM 41.0 °F 32.8 °F 35.6 °F 81% 30.02 in 10.0 mi North 16.1 mph 20.7 mph N/A   Overcast
12:55 PM 41.0 °F 32.8 °F 35.6 °F 81% 30.02 in 10.0 mi NNE 16.1 mph 20.7 mph N/A   Overcast
1:15 PM 42.8 °F 36.6 °F 37.4 °F 81% 30.03 in 10.0 mi North 11.5 mph 19.6 mph N/A   Overcast
1:35 PM 42.8 °F 34.8 °F 37.4 °F 81% 30.03 in 10.0 mi North 17.3 mph - N/A   Overcast
1:55 PM 44.6 °F 37.8 °F 37.4 °F 76% 30.03 in 10.0 mi North 15.0 mph - N/A   Overcast
2:15 PM 44.6 °F 37.4 °F 39.2 °F 81% 30.02 in 10.0 mi North 16.1 mph - N/A   Overcast
2:35 PM 46.4 °F 39.8 °F 39.2 °F 76% 30.03 in 10.0 mi NNE 16.1 mph 23.0 mph N/A   Overcast
2:55 PM 46.4 °F 39.8 °F 39.2 °F 76% 30.03 in 10.0 mi North 16.1 mph - N/A   Overcast
3:15 PM 46.4 °F 40.4 °F 39.2 °F 76% 30.03 in 10.0 mi North 13.8 mph 17.3 mph N/A   Overcast
3:35 PM 46.4 °F 40.1 °F 39.2 °F 76% 30.04 in 10.0 mi NNE 15.0 mph - N/A   Overcast
3:55 PM 46.4 °F 39.8 °F 39.2 °F 76% 30.04 in 10.0 mi North 16.1 mph - N/A   Overcast
4:15 PM 46.4 °F 40.7 °F 39.2 °F 76% 30.04 in 10.0 mi North 12.7 mph 18.4 mph N/A   Overcast
4:35 PM 46.4 °F 40.1 °F 39.2 °F 76% 30.04 in 10.0 mi NNE 15.0 mph - N/A   Overcast
4:55 PM 46.4 °F 39.8 °F 39.2 °F 76% 30.04 in 10.0 mi North 16.1 mph - N/A   Overcast
5:15 PM 46.4 °F 40.1 °F 41.0 °F 81% 30.04 in 10.0 mi North 15.0 mph - N/A   Overcast
5:35 PM 46.4 °F 39.8 °F 41.0 °F 81% 30.05 in 10.0 mi North 16.1 mph - N/A   Overcast
5:55 PM 46.4 °F 41.5 °F 41.0 °F 81% 30.06 in 10.0 mi North 10.4 mph - N/A   Overcast
6:15 PM 46.4 °F 41.5 °F 41.0 °F 81% 30.07 in 10.0 mi North 10.4 mph 16.1 mph N/A   Overcast
6:35 PM 46.4 °F 40.4 °F 41.0 °F 81% 30.07 in 10.0 mi North 13.8 mph - N/A   Overcast
6:55 PM 46.4 °F 41.5 °F 41.0 °F 81% 30.07 in 7.0 mi North 10.4 mph - N/A   Overcast
7:15 PM 44.6 °F 38.8 °F 39.2 °F 81% 30.08 in 7.0 mi North 11.5 mph 18.4 mph N/A   Overcast
7:35 PM 44.6 °F 37.8 °F 39.2 °F 81% 30.08 in 7.0 mi North 15.0 mph - N/A   Overcast
7:55 PM 44.6 °F 38.8 °F 39.2 °F 81% 30.08 in 7.0 mi North 11.5 mph - N/A   Overcast
8:15 PM 44.6 °F 39.2 °F 39.2 °F 81% 30.09 in 10.0 mi North 10.4 mph - N/A   Overcast
8:35 PM 44.6 °F 39.2 °F 39.2 °F 81% 30.10 in 10.0 mi North 10.4 mph 17.3 mph N/A   Overcast
8:55 PM 44.6 °F 39.2 °F 39.2 °F 81% 30.11 in 10.0 mi North 10.4 mph - N/A   Overcast
9:15 PM 44.6 °F 38.4 °F 39.2 °F 81% 30.10 in 10.0 mi North 12.7 mph - N/A   Overcast
9:35 PM 44.6 °F 38.8 °F 39.2 °F 81% 30.11 in 10.0 mi North 11.5 mph - N/A   Overcast
9:55 PM 44.6 °F 39.7 °F 39.2 °F 81% 30.12 in 10.0 mi North 9.2 mph - N/A   Overcast
10:15 PM 44.6 °F 38.4 °F 39.2 °F 81% 30.12 in 10.0 mi North 12.7 mph 16.1 mph N/A   Overcast
10:35 PM 44.6 °F 39.2 °F 39.2 °F 81% 30.12 in 10.0 mi North 10.4 mph - N/A   Overcast
10:55 PM 44.6 °F 39.7 °F 39.2 °F 81% 30.12 in 7.0 mi North 9.2 mph - N/A   Overcast
11:15 PM 42.8 °F 40.1 °F 37.4 °F 81% 30.12 in 4.0 mi North 4.6 mph - N/A   Drizzle
11:35 PM 42.8 °F 37.5 °F 37.4 °F 81% 30.11 in 7.0 mi North 9.2 mph - N/A   Light Drizzle
11:55 PM 42.8 °F 38.6 °F 37.4 °F 81% 30.11 in 10.0 mi North 6.9 mph - N/A   Overcast